Milwaukee, WI

7:30 PM CDT on October 15, 2018 (GMT -0500)
Gen Mitchell International

Weather History for KMKE - October, 2018

Change the Weather History Date:

Thursday, October 11, 2018

  Actual Average Record
Temperature  
Mean Temperature 47 °F 53 °F  
Max Temperature 51 °F 61 °F 86 °F (1928)
Min Temperature 42 °F 45 °F 25 °F (1964)
Degree Days  
Heating Degree Days 18 12  
Month to date heating degree days 59 117  
Since 1 July heating degree days 134 269  
Cooling Degree Days 0 0  
Month to date cooling degree days 26 3  
Year to date cooling degree days 929 637  
Moisture  
Dew Point 33 °F    
Average Humidity 58    
Maximum Humidity 70    
Minimum Humidity 46    
Precipitation  
Precipitation 0.00 in 0.09 in 1.01 in (1912)
Month to date precipitation 4.07 0.97  
Year to date precipitation 40.11 28.33  
Snow  
Snow 0.00 in 0.10 in 0.10 in (1909)
Month to date snowfall 0.0 0.1  
Since 1 July snowfall 0.0 0.1  
Since 1 September snowfall 0.0 0.1  
Snow Depth 0.00 in    
Sea Level Pressure  
Sea Level Pressure 29.87 in    
Wind  
Wind Speed 15 mph (West)    
Max Wind Speed 24 mph    
Max Gust Speed 39 mph    
Visibility 10 miles    
Events      
T = Trace of Precipitation, MM = Missing Value Source: NWS Daily Summary

Daily Weather History Graph

Daily Weather History Graph

Search for Another Location

Airport or City:

Astronomy

Oct. 11, 2018 Rise Set
Actual Time 7:00 AM CDT 6:15 PM CDT
Civil Twilight 6:31 AM CDT 6:43 PM CDT
Nautical Twilight 5:59 AM CDT 7:16 PM CDT
Astronomical Twilight 5:26 AM CDT 7:49 PM CDT
Moon 9:34 AM CDT (10/11) 8:08 PM CDT (10/11)
Length of Visible Light 12h 12m
Length of Day
11h 15m
Waxing Crescent, 8% of the Moon is Illuminated
Oct 11
Waxing Crescent
Oct 16
First Quarter
Oct 24
Full
Oct 31
Last Quarter
Nov 7
New

Hourly Weather History & Observations

Time (CDT) Temp. Windchill Dew Point Humidity Pressure Visibility Wind Dir Wind Speed Gust Speed Precip Events Conditions
12:52 AM 51.1 °F - 41.0 °F 68% 29.69 in 10.0 mi West 17.3 mph 31.1 mph N/A   Overcast
1:52 AM 50.0 °F - 39.0 °F 66% 29.70 in 10.0 mi West 12.7 mph 33.4 mph N/A   Mostly Cloudy
2:03 AM 50.0 °F - 37.9 °F 63% 29.71 in 10.0 mi West 12.7 mph 27.6 mph N/A   Mostly Cloudy
2:52 AM 48.9 °F - 37.0 °F 64% 29.72 in 10.0 mi West 11.5 mph 28.8 mph N/A   Mostly Cloudy
3:18 AM 48.9 °F - 37.9 °F 66% 29.72 in 10.0 mi West 16.1 mph 31.1 mph N/A   Overcast
3:52 AM 48.9 °F - 37.9 °F 66% 29.73 in 10.0 mi West 18.4 mph 27.6 mph N/A   Overcast
4:52 AM 48.0 °F - 36.0 °F 63% 29.76 in 10.0 mi West 15.0 mph 27.6 mph N/A   Mostly Cloudy
5:52 AM 45.0 °F 37.6 °F 34.0 °F 65% 29.79 in 10.0 mi West 17.3 mph 29.9 mph N/A   Mostly Cloudy
6:28 AM 44.1 °F 36.2 °F 34.0 °F 68% 29.80 in 10.0 mi West 18.4 mph 31.1 mph N/A   Mostly Cloudy
6:52 AM 44.1 °F 36.2 °F 34.0 °F 68% 29.81 in 10.0 mi West 18.4 mph 28.8 mph N/A   Mostly Cloudy
7:52 AM 43.0 °F 35.4 °F 33.1 °F 68% 29.84 in 10.0 mi West 16.1 mph 29.9 mph N/A   Mostly Cloudy
8:52 AM 43.0 °F 36.0 °F 33.1 °F 68% 29.86 in 10.0 mi West 13.8 mph 27.6 mph N/A   Mostly Cloudy
9:52 AM 45.0 °F 38.2 °F 33.1 °F 63% 29.87 in 10.0 mi West 15.0 mph 29.9 mph N/A   Mostly Cloudy
10:11 AM 45.0 °F 36.6 °F 32.0 °F 60% 29.87 in 10.0 mi West 21.9 mph 36.8 mph N/A   Mostly Cloudy
10:52 AM 46.9 °F - 32.0 °F 56% 29.89 in 10.0 mi West 19.6 mph 29.9 mph N/A   Mostly Cloudy
11:52 AM 46.0 °F 39.0 °F 30.9 °F 56% 29.90 in 10.0 mi West 17.3 mph 31.1 mph N/A   Mostly Cloudy
12:52 PM 46.9 °F - 30.9 °F 54% 29.92 in 10.0 mi WNW 17.3 mph 28.8 mph N/A   Mostly Cloudy
1:52 PM 46.9 °F - 30.0 °F 52% 29.92 in 10.0 mi West 16.1 mph 34.5 mph N/A   Mostly Cloudy
2:52 PM 48.0 °F - 30.0 °F 50% 29.92 in 10.0 mi West 17.3 mph 27.6 mph N/A   Mostly Cloudy
3:52 PM 50.0 °F - 30.9 °F 48% 29.93 in 10.0 mi WNW 15.0 mph 28.8 mph N/A   Mostly Cloudy
4:52 PM 46.9 °F - 30.0 °F 52% 29.95 in 10.0 mi WNW 17.3 mph 29.9 mph N/A   Mostly Cloudy
5:52 PM 46.0 °F 39.9 °F 30.9 °F 56% 29.98 in 10.0 mi West 13.8 mph 24.2 mph N/A   Mostly Cloudy
6:52 PM 45.0 °F 38.5 °F 30.0 °F 56% 29.99 in 10.0 mi WNW 13.8 mph 23.0 mph N/A   Mostly Cloudy
7:52 PM 44.1 °F 38.1 °F 30.9 °F 60% 30.01 in 10.0 mi WNW 11.5 mph 21.9 mph N/A   Mostly Cloudy
8:52 PM 44.1 °F 37.7 °F 28.9 °F 55% 30.01 in 10.0 mi WNW 12.7 mph 27.6 mph N/A   Mostly Cloudy
9:52 PM 43.0 °F 36.0 °F 28.9 °F 58% 30.01 in 10.0 mi NW 13.8 mph 23.0 mph N/A   Mostly Cloudy
10:52 PM 43.0 °F 36.0 °F 28.9 °F 58% 30.02 in 10.0 mi WNW 13.8 mph 24.2 mph N/A   Overcast
11:52 PM 43.0 °F 37.7 °F 30.0 °F 60% 30.02 in 10.0 mi WNW 9.2 mph - N/A   Overcast